contact:dominique.lefevre@mio.osupytheas.fr, maurice.libes@osupytheas.fr, didier.mallarino@osupytheas.fr
Project:EMSO http://www.emso-fr.org/EMSO-France
Depth: 2436.0 m
Title:EMSO Ligure Ouest : Data MII capteur CSTAR
DateTime,Latitude,Longitude,Instrument_Serial,Reference_Counts,Signal_Counts,Corrected_Signal_raw_counts,Calculated_Beam_c_inverse_meters,Internal_thermistor_counts
DateTime,Latitude,Longitude,Instrument_Serial,Reference_Counts,Signal_Counts,Corrected_Signal_raw_counts,Calculated_Beam_c_inverse_meters,Internal_thermistor_counts
2020-03-26T00:01:02,42.805,6.029,CST-1368DR,6565,9206,15210,0.105,551
2020-03-26T00:04:03,42.805,6.029,CST-1368DR,6565,9206,15210,0.105,551
2020-03-26T00:07:05,42.805,6.029,CST-1368DR,6565,9204,15207,0.106,551
2020-03-26T00:10:07,42.805,6.029,CST-1368DR,6565,9205,15208,0.106,551
2020-03-26T00:13:08,42.805,6.029,CST-1368DR,6565,9206,15210,0.105,551
2020-03-26T00:16:10,42.805,6.029,CST-1368DR,6565,9205,15209,0.106,551
2020-03-26T00:19:12,42.805,6.029,CST-1368DR,6565,9206,15209,0.106,551
2020-03-26T00:22:13,42.805,6.029,CST-1368DR,6565,9205,15208,0.106,551
2020-03-26T00:25:15,42.805,6.029,CST-1368DR,6565,9207,15211,0.105,551
2020-03-26T00:28:17,42.805,6.029,CST-1368DR,6565,9205,15209,0.106,551
2020-03-26T00:31:18,42.805,6.029,CST-1368DR,6565,9206,15210,0.105,551
2020-03-26T00:34:20,42.805,6.029,CST-1368DR,6565,9206,15210,0.105,551
2020-03-26T00:37:22,42.805,6.029,CST-1368DR,6564,9206,15212,0.105,551
2020-03-26T00:40:23,42.805,6.029,CST-1368DR,6565,9203,15205,0.107,551
2020-03-26T00:43:25,42.805,6.029,CST-1368DR,6565,9206,15209,0.106,551
2020-03-26T00:46:27,42.805,6.029,CST-1368DR,6564,9206,15211,0.105,551
2020-03-26T00:49:29,42.805,6.029,CST-1368DR,6564,9205,15210,0.105,551
2020-03-26T00:52:30,42.805,6.029,CST-1368DR,6564,9205,15211,0.105,551
2020-03-26T00:55:32,42.805,6.029,CST-1368DR,6564,9206,15212,0.105,551
2020-03-26T00:58:34,42.805,6.029,CST-1368DR,6564,9206,15211,0.105,551
2020-03-26T01:01:35,42.805,6.029,CST-1368DR,6564,9206,15211,0.105,551
2020-03-26T01:04:37,42.805,6.029,CST-1368DR,6564,9205,15210,0.105,550
2020-03-26T01:07:39,42.805,6.029,CST-1368DR,6564,9205,15211,0.105,551
2020-03-26T01:10:41,42.805,6.029,CST-1368DR,6564,9206,15212,0.105,551
2020-03-26T01:13:42,42.805,6.029,CST-1368DR,6564,9206,15211,0.105,550
2020-03-26T01:16:44,42.805,6.029,CST-1368DR,6564,9206,15212,0.105,551
2020-03-26T01:19:46,42.805,6.029,CST-1368DR,6564,9206,15211,0.105,551
2020-03-26T01:22:47,42.805,6.029,CST-1368DR,6564,9206,15212,0.105,550
2020-03-26T01:25:49,42.805,6.029,CST-1368DR,6564,9205,15211,0.105,551
2020-03-26T01:28:51,42.805,6.029,CST-1368DR,6564,9206,15211,0.105,551
2020-03-26T01:31:53,42.805,6.029,CST-1368DR,6564,9203,15207,0.106,551
2020-03-26T01:34:54,42.805,6.029,CST-1368DR,6564,9206,15211,0.105,551
2020-03-26T01:37:56,42.805,6.029,CST-1368DR,6564,9206,15212,0.105,551
2020-03-26T01:40:58,42.805,6.029,CST-1368DR,6564,9205,15211,0.105,551
2020-03-26T01:44:00,42.805,6.029,CST-1368DR,6564,9205,15211,0.105,550
2020-03-26T01:47:01,42.805,6.029,CST-1368DR,6564,9206,15211,0.105,551
2020-03-26T01:50:03,42.805,6.029,CST-1368DR,6564,9206,15212,0.105,551
2020-03-26T01:53:05,42.805,6.029,CST-1368DR,6564,9206,15211,0.105,551
2020-03-26T01:56:06,42.805,6.029,CST-1368DR,6564,9206,15212,0.105,551
2020-03-26T01:59:08,42.805,6.029,CST-1368DR,6564,9206,15212,0.105,550
2020-03-26T02:02:10,42.805,6.029,CST-1368DR,6564,9206,15212,0.105,551
2020-03-26T02:05:11,42.805,6.029,CST-1368DR,6564,9206,15212,0.105,551
2020-03-26T02:08:13,42.805,6.029,CST-1368DR,6564,9207,15213,0.105,551
2020-03-26T02:11:15,42.805,6.029,CST-1368DR,6564,9206,15212,0.105,551
2020-03-26T02:14:17,42.805,6.029,CST-1368DR,6564,9205,15210,0.105,551
2020-03-26T02:17:18,42.805,6.029,CST-1368DR,6564,9205,15210,0.105,551
2020-03-26T02:20:20,42.805,6.029,CST-1368DR,6564,9206,15211,0.105,551
2020-03-26T02:23:22,42.805,6.029,CST-1368DR,6564,9206,15211,0.105,551
2020-03-26T02:26:23,42.805,6.029,CST-1368DR,6564,9205,15211,0.105,551
2020-03-26T02:29:25,42.805,6.029,CST-1368DR,6564,9205,15211,0.105,551
2020-03-26T02:32:27,42.805,6.029,CST-1368DR,6564,9205,15211,0.105,551
2020-03-26T02:35:28,42.805,6.029,CST-1368DR,6564,9205,15211,0.105,551
2020-03-26T02:38:30,42.805,6.029,CST-1368DR,6564,9205,15210,0.105,551
2020-03-26T02:41:32,42.805,6.029,CST-1368DR,6564,9205,15211,0.105,551
2020-03-26T02:44:34,42.805,6.029,CST-1368DR,6564,9205,15211,0.105,551
2020-03-26T02:47:35,42.805,6.029,CST-1368DR,6564,9205,15210,0.105,551
2020-03-26T02:50:37,42.805,6.029,CST-1368DR,6564,9206,15211,0.105,551
2020-03-26T02:53:39,42.805,6.029,CST-1368DR,6564,9205,15211,0.105,551
2020-03-26T02:56:41,42.805,6.029,CST-1368DR,6564,9206,15212,0.105,551
2020-03-26T02:59:42,42.805,6.029,CST-1368DR,6564,9206,15211,0.105,551
2020-03-26T03:02:44,42.805,6.029,CST-1368DR,6564,9205,15211,0.105,551
2020-03-26T03:05:46,42.805,6.029,CST-1368DR,6564,9205,15210,0.105,551
2020-03-26T03:08:48,42.805,6.029,CST-1368DR,6564,9205,15211,0.105,551
2020-03-26T03:11:49,42.805,6.029,CST-1368DR,6564,9205,15210,0.105,551
2020-03-26T03:14:51,42.805,6.029,CST-1368DR,6564,9205,15211,0.105,551
2020-03-26T03:17:53,42.805,6.029,CST-1368DR,6564,9205,15211,0.105,551
2020-03-26T03:20:55,42.805,6.029,CST-1368DR,6564,9205,15211,0.105,551
2020-03-26T03:23:56,42.805,6.029,CST-1368DR,6564,9204,15209,0.106,551
2020-03-26T03:26:58,42.805,6.029,CST-1368DR,6564,9204,15209,0.106,551
2020-03-26T03:30:00,42.805,6.029,CST-1368DR,6564,9205,15210,0.105,551
2020-03-26T03:33:02,42.805,6.029,CST-1368DR,6564,9204,15209,0.106,551
2020-03-26T03:36:03,42.805,6.029,CST-1368DR,6564,9205,15211,0.105,551
2020-03-26T03:39:05,42.805,6.029,CST-1368DR,6564,9205,15210,0.105,551
2020-03-26T03:42:07,42.805,6.029,CST-1368DR,6564,9205,15210,0.105,550
2020-03-26T03:45:09,42.805,6.029,CST-1368DR,6564,9205,15210,0.105,551
2020-03-26T03:48:10,42.805,6.029,CST-1368DR,6564,9205,15210,0.105,551
2020-03-26T03:51:12,42.805,6.029,CST-1368DR,6564,9205,15210,0.105,551
2020-03-26T03:54:14,42.805,6.029,CST-1368DR,6564,9205,15211,0.105,551
2020-03-26T03:57:15,42.805,6.029,CST-1368DR,6564,9205,15210,0.105,551
2020-03-26T04:00:17,42.805,6.029,CST-1368DR,6564,9205,15210,0.105,550
2020-03-26T04:03:19,42.805,6.029,CST-1368DR,6564,9205,15211,0.105,551
2020-03-26T04:06:21,42.805,6.029,CST-1368DR,6564,9205,15211,0.105,551
2020-03-26T04:09:22,42.805,6.029,CST-1368DR,6564,9205,15210,0.105,551
2020-03-26T04:12:24,42.805,6.029,CST-1368DR,6564,9205,15211,0.105,551
2020-03-26T04:15:26,42.805,6.029,CST-1368DR,6564,9205,15210,0.105,551
2020-03-26T04:18:27,42.805,6.029,CST-1368DR,6564,9204,15209,0.106,551
2020-03-26T04:21:29,42.805,6.029,CST-1368DR,6564,9204,15209,0.106,551
2020-03-26T04:24:31,42.805,6.029,CST-1368DR,6564,9200,15203,0.107,551
2020-03-26T04:27:32,42.805,6.029,CST-1368DR,6564,9205,15211,0.105,551
2020-03-26T04:30:34,42.805,6.029,CST-1368DR,6564,9205,15211,0.105,551
2020-03-26T04:33:36,42.805,6.029,CST-1368DR,6564,9205,15210,0.105,551
2020-03-26T04:36:38,42.805,6.029,CST-1368DR,6564,9206,15211,0.105,551
2020-03-26T04:39:39,42.805,6.029,CST-1368DR,6564,9205,15211,0.105,551
2020-03-26T04:42:41,42.805,6.029,CST-1368DR,6563,9205,15213,0.105,551
2020-03-26T04:45:43,42.805,6.029,CST-1368DR,6563,9202,15207,0.106,551
2020-03-26T04:48:44,42.805,6.029,CST-1368DR,6563,9205,15213,0.105,551
2020-03-26T04:51:46,42.805,6.029,CST-1368DR,6564,9205,15211,0.105,551
2020-03-26T04:54:48,42.805,6.029,CST-1368DR,6563,9205,15212,0.105,551
2020-03-26T04:57:49,42.805,6.029,CST-1368DR,6563,9204,15210,0.105,551
2020-03-26T05:00:51,42.805,6.029,CST-1368DR,6564,9205,15210,0.105,551
2020-03-26T05:03:53,42.805,6.029,CST-1368DR,6563,9205,15212,0.105,550
2020-03-26T05:06:54,42.805,6.029,CST-1368DR,6563,9204,15211,0.105,550
2020-03-26T05:09:56,42.805,6.029,CST-1368DR,6563,9205,15213,0.105,551
2020-03-26T05:12:58,42.805,6.029,CST-1368DR,6563,9206,15214,0.104,551
2020-03-26T05:15:59,42.805,6.029,CST-1368DR,6563,9206,15214,0.104,551
2020-03-26T05:19:01,42.805,6.029,CST-1368DR,6563,9205,15212,0.105,551
2020-03-26T05:22:03,42.805,6.029,CST-1368DR,6563,9205,15212,0.105,551
2020-03-26T05:25:05,42.805,6.029,CST-1368DR,6563,9204,15211,0.105,551
2020-03-26T05:28:06,42.805,6.029,CST-1368DR,6563,9205,15213,0.105,551
2020-03-26T05:31:08,42.805,6.029,CST-1368DR,6563,9205,15212,0.105,551
2020-03-26T05:34:10,42.805,6.029,CST-1368DR,6563,9205,15212,0.105,551
2020-03-26T05:37:11,42.805,6.029,CST-1368DR,6563,9205,15212,0.105,551
2020-03-26T05:40:13,42.805,6.029,CST-1368DR,6563,9205,15213,0.105,551
2020-03-26T05:43:15,42.805,6.029,CST-1368DR,6563,9205,15213,0.105,551
2020-03-26T05:46:16,42.805,6.029,CST-1368DR,6563,9204,15211,0.105,551
2020-03-26T05:49:18,42.805,6.029,CST-1368DR,6563,9205,15212,0.105,551
2020-03-26T05:52:20,42.805,6.029,CST-1368DR,6563,9204,15211,0.105,551
2020-03-26T05:55:22,42.805,6.029,CST-1368DR,6563,9203,15209,0.106,551
2020-03-26T05:58:23,42.805,6.029,CST-1368DR,6563,9204,15211,0.105,551
2020-03-26T06:01:25,42.805,6.029,CST-1368DR,6563,9199,15202,0.107,551
2020-03-26T06:04:27,42.805,6.029,CST-1368DR,6563,9205,15212,0.105,551
2020-03-26T06:07:28,42.805,6.029,CST-1368DR,6563,9204,15211,0.105,550
2020-03-26T06:10:30,42.805,6.029,CST-1368DR,6563,9205,15212,0.105,551
2020-03-26T06:13:32,42.805,6.029,CST-1368DR,6563,9204,15212,0.105,551
2020-03-26T06:16:33,42.805,6.029,CST-1368DR,6563,9205,15213,0.105,551
2020-03-26T06:19:35,42.805,6.029,CST-1368DR,6563,9205,15212,0.105,551
2020-03-26T06:22:37,42.805,6.029,CST-1368DR,6563,9204,15211,0.105,550
2020-03-26T06:25:38,42.805,6.029,CST-1368DR,6563,9204,15212,0.105,550
2020-03-26T06:28:40,42.805,6.029,CST-1368DR,6563,9203,15210,0.105,550
2020-03-26T06:31:42,42.805,6.029,CST-1368DR,6563,9205,15212,0.105,551
2020-03-26T06:34:43,42.805,6.029,CST-1368DR,6563,9205,15212,0.105,551
2020-03-26T06:37:45,42.805,6.029,CST-1368DR,6563,9204,15212,0.105,550
2020-03-26T06:40:47,42.805,6.029,CST-1368DR,6563,9205,15213,0.105,551
2020-03-26T06:43:49,42.805,6.029,CST-1368DR,6563,9204,15212,0.105,551
2020-03-26T06:46:50,42.805,6.029,CST-1368DR,6563,9205,15212,0.105,550
2020-03-26T06:49:52,42.805,6.029,CST-1368DR,6563,9204,15212,0.105,551
2020-03-26T06:52:54,42.805,6.029,CST-1368DR,6563,9204,15211,0.105,551
2020-03-26T06:55:55,42.805,6.029,CST-1368DR,6563,9205,15212,0.105,550
2020-03-26T06:58:57,42.805,6.029,CST-1368DR,6563,9204,15211,0.105,551
2020-03-26T07:01:59,42.805,6.029,CST-1368DR,6563,9204,15211,0.105,551
2020-03-26T07:05:00,42.805,6.029,CST-1368DR,6563,9204,15212,0.105,551
2020-03-26T07:08:02,42.805,6.029,CST-1368DR,6563,9204,15210,0.105,551
2020-03-26T07:11:04,42.805,6.029,CST-1368DR,6563,9204,15212,0.105,550
2020-03-26T07:14:06,42.805,6.029,CST-1368DR,6563,9204,15212,0.105,551
2020-03-26T07:17:07,42.805,6.029,CST-1368DR,6563,9203,15209,0.106,551
2020-03-26T07:20:09,42.805,6.029,CST-1368DR,6563,9204,15211,0.105,551
2020-03-26T07:23:11,42.805,6.029,CST-1368DR,6563,9204,15211,0.105,551
2020-03-26T07:26:12,42.805,6.029,CST-1368DR,6563,9205,15212,0.105,551
2020-03-26T07:29:14,42.805,6.029,CST-1368DR,6563,9204,15211,0.105,551
2020-03-26T07:32:16,42.805,6.029,CST-1368DR,6563,9203,15209,0.106,551
2020-03-26T07:35:17,42.805,6.029,CST-1368DR,6563,9204,15211,0.105,551
2020-03-26T07:38:19,42.805,6.029,CST-1368DR,6563,9204,15211,0.105,551
2020-03-26T07:41:21,42.805,6.029,CST-1368DR,6563,9204,15211,0.105,551
2020-03-26T07:44:22,42.805,6.029,CST-1368DR,6563,9204,15211,0.105,551
2020-03-26T07:47:24,42.805,6.029,CST-1368DR,6563,9204,15211,0.105,550
2020-03-26T07:50:26,42.805,6.029,CST-1368DR,6563,9204,15210,0.105,551
2020-03-26T07:53:28,42.805,6.029,CST-1368DR,6563,9204,15211,0.105,551
2020-03-26T07:56:30,42.805,6.029,CST-1368DR,6563,9204,15210,0.105,551
2020-03-26T07:59:31,42.805,6.029,CST-1368DR,6563,9204,15210,0.105,551
2020-03-26T08:02:33,42.805,6.029,CST-1368DR,6563,9205,15212,0.105,551
2020-03-26T08:05:35,42.805,6.029,CST-1368DR,6563,9204,15212,0.105,551
2020-03-26T08:08:37,42.805,6.029,CST-1368DR,6563,9205,15212,0.105,551
2020-03-26T08:11:38,42.805,6.029,CST-1368DR,6563,9203,15210,0.105,551
2020-03-26T08:14:40,42.805,6.029,CST-1368DR,6563,9204,15211,0.105,551
2020-03-26T08:17:42,42.805,6.029,CST-1368DR,6563,9195,15196,0.109,551
2020-03-26T08:20:43,42.805,6.029,CST-1368DR,6563,9203,15209,0.106,551
2020-03-26T08:23:45,42.805,6.029,CST-1368DR,6563,9203,15209,0.106,551
2020-03-26T08:26:47,42.805,6.029,CST-1368DR,6563,9203,15210,0.105,551
2020-03-26T08:29:49,42.805,6.029,CST-1368DR,6563,9204,15211,0.105,551
2020-03-26T08:32:50,42.805,6.029,CST-1368DR,6563,9202,15207,0.106,551
2020-03-26T08:35:52,42.805,6.029,CST-1368DR,6563,9203,15209,0.106,550
2020-03-26T08:38:54,42.805,6.029,CST-1368DR,6563,9203,15209,0.106,551
2020-03-26T08:41:55,42.805,6.029,CST-1368DR,6563,9203,15210,0.105,551
2020-03-26T08:44:57,42.805,6.029,CST-1368DR,6563,9204,15210,0.105,551
2020-03-26T08:47:59,42.805,6.029,CST-1368DR,6563,9204,15212,0.105,550
2020-03-26T08:51:01,42.805,6.029,CST-1368DR,6563,9203,15209,0.106,551
2020-03-26T08:54:02,42.805,6.029,CST-1368DR,6563,9204,15211,0.105,551
2020-03-26T08:57:04,42.805,6.029,CST-1368DR,6563,9204,15210,0.105,551
2020-03-26T09:00:06,42.805,6.029,CST-1368DR,6563,9204,15211,0.105,551
2020-03-26T09:03:07,42.805,6.029,CST-1368DR,6563,9203,15210,0.105,551
2020-03-26T09:06:09,42.805,6.029,CST-1368DR,6563,9203,15209,0.106,550
2020-03-26T09:09:11,42.805,6.029,CST-1368DR,6563,9202,15207,0.106,551
2020-03-26T09:12:12,42.805,6.029,CST-1368DR,6563,9203,15209,0.106,551
2020-03-26T09:15:14,42.805,6.029,CST-1368DR,6563,9204,15212,0.105,551
2020-03-26T09:18:16,42.805,6.029,CST-1368DR,6562,9203,15211,0.105,551
2020-03-26T09:21:18,42.805,6.029,CST-1368DR,6562,9202,15210,0.105,551
2020-03-26T09:24:19,42.805,6.029,CST-1368DR,6563,9203,15209,0.106,551
2020-03-26T09:27:21,42.805,6.029,CST-1368DR,6563,9204,15210,0.105,551
2020-03-26T09:30:23,42.805,6.029,CST-1368DR,6563,9204,15211,0.105,551
2020-03-26T09:33:25,42.805,6.029,CST-1368DR,6563,9204,15212,0.105,551
2020-03-26T09:36:26,42.805,6.029,CST-1368DR,6563,9202,15207,0.106,550
2020-03-26T09:39:28,42.805,6.029,CST-1368DR,6563,9204,15211,0.105,551
2020-03-26T09:42:30,42.805,6.029,CST-1368DR,6562,9203,15211,0.105,551
2020-03-26T09:45:31,42.805,6.029,CST-1368DR,6563,9203,15209,0.106,551
2020-03-26T09:48:33,42.805,6.029,CST-1368DR,6562,9202,15210,0.105,551
2020-03-26T09:51:35,42.805,6.029,CST-1368DR,6563,9202,15208,0.106,551
2020-03-26T09:54:37,42.805,6.029,CST-1368DR,6563,9203,15209,0.106,551
2020-03-26T09:57:38,42.805,6.029,CST-1368DR,6563,9202,15208,0.106,551
2020-03-26T10:00:40,42.805,6.029,CST-1368DR,6562,9203,15212,0.105,550
2020-03-26T10:03:42,42.805,6.029,CST-1368DR,6562,9203,15211,0.105,551
2020-03-26T10:06:43,42.805,6.029,CST-1368DR,6562,9203,15211,0.105,551
2020-03-26T10:09:45,42.805,6.029,CST-1368DR,6562,9203,15211,0.105,551
2020-03-26T10:12:47,42.805,6.029,CST-1368DR,6562,9202,15210,0.105,551
2020-03-26T10:15:48,42.805,6.029,CST-1368DR,6562,9203,15212,0.105,551
2020-03-26T10:18:50,42.805,6.029,CST-1368DR,6562,9204,15213,0.105,551
2020-03-26T10:21:52,42.805,6.029,CST-1368DR,6562,9203,15211,0.105,551
2020-03-26T10:24:54,42.805,6.029,CST-1368DR,6562,9202,15210,0.105,551
2020-03-26T10:27:55,42.805,6.029,CST-1368DR,6562,9204,15213,0.105,551
2020-03-26T10:30:57,42.805,6.029,CST-1368DR,6562,9202,15210,0.105,550
2020-03-26T10:33:59,42.805,6.029,CST-1368DR,6562,9202,15210,0.105,551
2020-03-26T10:37:01,42.805,6.029,CST-1368DR,6562,9203,15211,0.105,551
2020-03-26T10:40:02,42.805,6.029,CST-1368DR,6562,9202,15210,0.105,551
2020-03-26T10:43:04,42.805,6.029,CST-1368DR,6562,9203,15211,0.105,551
2020-03-26T10:46:06,42.805,6.029,CST-1368DR,6562,9203,15211,0.105,551
2020-03-26T10:49:07,42.805,6.029,CST-1368DR,6562,9204,15213,0.105,551
2020-03-26T10:52:09,42.805,6.029,CST-1368DR,6562,9203,15211,0.105,551
2020-03-26T10:55:11,42.805,6.029,CST-1368DR,6562,9202,15210,0.105,551
2020-03-26T10:58:12,42.805,6.029,CST-1368DR,6562,9202,15210,0.105,551
2020-03-26T11:01:14,42.805,6.029,CST-1368DR,6562,9203,15211,0.105,551
2020-03-26T11:04:16,42.805,6.029,CST-1368DR,6562,9203,15211,0.105,551
2020-03-26T11:07:18,42.805,6.029,CST-1368DR,6562,9203,15212,0.105,551
2020-03-26T11:10:20,42.805,6.029,CST-1368DR,6562,9202,15210,0.105,551
2020-03-26T11:13:21,42.805,6.029,CST-1368DR,6562,9203,15211,0.105,551
2020-03-26T11:16:23,42.805,6.029,CST-1368DR,6562,9203,15211,0.105,551
2020-03-26T11:19:25,42.805,6.029,CST-1368DR,6562,9202,15210,0.105,551
2020-03-26T11:22:26,42.805,6.029,CST-1368DR,6562,9202,15210,0.105,551
2020-03-26T11:25:28,42.805,6.029,CST-1368DR,6562,9203,15211,0.105,551
2020-03-26T11:28:30,42.805,6.029,CST-1368DR,6562,9201,15208,0.106,550
2020-03-26T11:31:31,42.805,6.029,CST-1368DR,6562,9202,15210,0.105,551
2020-03-26T11:34:33,42.805,6.029,CST-1368DR,6562,9203,15211,0.105,551
2020-03-26T11:37:35,42.805,6.029,CST-1368DR,6562,9202,15209,0.106,551
2020-03-26T11:40:37,42.805,6.029,CST-1368DR,6562,9202,15210,0.105,551
2020-03-26T11:43:38,42.805,6.029,CST-1368DR,6562,9202,15210,0.105,551
2020-03-26T11:46:40,42.805,6.029,CST-1368DR,6562,9202,15210,0.105,551
2020-03-26T11:49:42,42.805,6.029,CST-1368DR,6562,9202,15210,0.105,551
2020-03-26T11:52:43,42.805,6.029,CST-1368DR,6562,9203,15211,0.105,551
2020-03-26T11:55:45,42.805,6.029,CST-1368DR,6562,9202,15210,0.105,551
2020-03-26T11:58:47,42.805,6.029,CST-1368DR,6562,9202,15210,0.105,550
2020-03-26T12:01:49,42.805,6.029,CST-1368DR,6562,9202,15210,0.105,551
2020-03-26T12:04:50,42.805,6.029,CST-1368DR,6562,9202,15210,0.105,550
2020-03-26T12:07:52,42.805,6.029,CST-1368DR,6562,9202,15210,0.105,551
2020-03-26T12:10:54,42.805,6.029,CST-1368DR,6562,9202,15209,0.106,551
2020-03-26T12:13:55,42.805,6.029,CST-1368DR,6562,9202,15210,0.105,551
2020-03-26T12:16:57,42.805,6.029,CST-1368DR,6562,9199,15205,0.107,551
2020-03-26T12:19:59,42.805,6.029,CST-1368DR,6562,9202,15210,0.105,551
2020-03-26T12:23:00,42.805,6.029,CST-1368DR,6562,9202,15210,0.105,551
2020-03-26T12:26:02,42.805,6.029,CST-1368DR,6562,9202,15210,0.105,551
2020-03-26T12:29:04,42.805,6.029,CST-1368DR,6562,9202,15210,0.105,551
2020-03-26T12:32:05,42.805,6.029,CST-1368DR,6562,9202,15210,0.105,551
2020-03-26T12:35:07,42.805,6.029,CST-1368DR,6562,9202,15210,0.105,551
2020-03-26T12:38:09,42.805,6.029,CST-1368DR,6562,9201,15209,0.106,551
2020-03-26T12:41:11,42.805,6.029,CST-1368DR,6562,9202,15210,0.105,551
2020-03-26T12:44:12,42.805,6.029,CST-1368DR,6562,9201,15208,0.106,551
2020-03-26T12:47:14,42.805,6.029,CST-1368DR,6562,9201,15209,0.106,551
2020-03-26T12:50:16,42.805,6.029,CST-1368DR,6562,9202,15209,0.106,551
2020-03-26T12:53:17,42.805,6.029,CST-1368DR,6562,9201,15209,0.106,550
2020-03-26T12:56:19,42.805,6.029,CST-1368DR,6562,9202,15210,0.105,551
2020-03-26T12:59:21,42.805,6.029,CST-1368DR,6562,9201,15208,0.106,551
2020-03-26T13:02:22,42.805,6.029,CST-1368DR,6562,9201,15209,0.106,551
2020-03-26T13:05:24,42.805,6.029,CST-1368DR,6562,9201,15208,0.106,551
2020-03-26T13:08:26,42.805,6.029,CST-1368DR,6562,9202,15209,0.106,551
2020-03-26T13:11:28,42.805,6.029,CST-1368DR,6562,9200,15207,0.106,551
2020-03-26T13:14:29,42.805,6.029,CST-1368DR,6562,9198,15203,0.107,551
2020-03-26T13:17:31,42.805,6.029,CST-1368DR,6562,9201,15209,0.106,551
2020-03-26T13:20:33,42.805,6.029,CST-1368DR,6562,9201,15209,0.106,551
2020-03-26T13:23:34,42.805,6.029,CST-1368DR,6561,9200,15209,0.106,551
2020-03-26T13:26:36,42.805,6.029,CST-1368DR,6562,9201,15208,0.106,551
2020-03-26T13:29:38,42.805,6.029,CST-1368DR,6562,9202,15210,0.105,551
2020-03-26T13:32:40,42.805,6.029,CST-1368DR,6562,9199,15205,0.107,551
2020-03-26T13:35:41,42.805,6.029,CST-1368DR,6562,9202,15210,0.105,551
2020-03-26T13:38:43,42.805,6.029,CST-1368DR,6562,9202,15210,0.105,551
2020-03-26T13:41:45,42.805,6.029,CST-1368DR,6562,9201,15209,0.106,551
2020-03-26T13:44:46,42.805,6.029,CST-1368DR,6562,9202,15210,0.105,551
2020-03-26T13:47:48,42.805,6.029,CST-1368DR,6562,9201,15209,0.106,551
2020-03-26T13:50:50,42.805,6.029,CST-1368DR,6562,9200,15207,0.106,551
2020-03-26T13:53:51,42.805,6.029,CST-1368DR,6561,9201,15210,0.105,551
2020-03-26T13:56:53,42.805,6.029,CST-1368DR,6561,9201,15210,0.105,551
2020-03-26T13:59:55,42.805,6.029,CST-1368DR,6561,9201,15211,0.105,551
2020-03-26T14:02:56,42.805,6.029,CST-1368DR,6561,9202,15211,0.105,551
2020-03-26T14:05:58,42.805,6.029,CST-1368DR,6561,9199,15208,0.106,551
2020-03-26T14:09:00,42.805,6.029,CST-1368DR,6562,9201,15209,0.106,551
2020-03-26T14:12:02,42.805,6.029,CST-1368DR,6562,9201,15208,0.106,551
2020-03-26T14:15:03,42.805,6.029,CST-1368DR,6561,9200,15209,0.106,551
2020-03-26T14:18:05,42.805,6.029,CST-1368DR,6561,9200,15209,0.106,551
2020-03-26T14:21:07,42.805,6.029,CST-1368DR,6562,9200,15207,0.106,551
2020-03-26T14:24:08,42.805,6.029,CST-1368DR,6561,9201,15210,0.105,551
2020-03-26T14:27:10,42.805,6.029,CST-1368DR,6561,9201,15210,0.105,551
2020-03-26T14:30:12,42.805,6.029,CST-1368DR,6561,9201,15210,0.105,551
2020-03-26T14:33:14,42.805,6.029,CST-1368DR,6561,9201,15211,0.105,551
2020-03-26T14:36:15,42.805,6.029,CST-1368DR,6561,9200,15209,0.106,551
2020-03-26T14:39:17,42.805,6.029,CST-1368DR,6561,9201,15210,0.105,551
2020-03-26T14:42:19,42.805,6.029,CST-1368DR,6561,9201,15210,0.105,550
2020-03-26T14:45:20,42.805,6.029,CST-1368DR,6561,9200,15209,0.106,551
2020-03-26T14:48:22,42.805,6.029,CST-1368DR,6561,9201,15210,0.105,551
2020-03-26T14:51:23,42.805,6.029,CST-1368DR,6561,9200,15209,0.106,551
2020-03-26T14:54:25,42.805,6.029,CST-1368DR,6561,9200,15209,0.106,551
2020-03-26T14:57:27,42.805,6.029,CST-1368DR,6561,9201,15210,0.105,551
2020-03-26T15:00:28,42.805,6.029,CST-1368DR,6561,9201,15210,0.105,550
2020-03-26T15:03:30,42.805,6.029,CST-1368DR,6561,9199,15207,0.106,551
2020-03-26T15:06:32,42.805,6.029,CST-1368DR,6561,9201,15210,0.105,551
2020-03-26T15:09:33,42.805,6.029,CST-1368DR,6561,9198,15205,0.107,551
2020-03-26T15:12:35,42.805,6.029,CST-1368DR,6561,9201,15210,0.105,551
2020-03-26T15:15:37,42.805,6.029,CST-1368DR,6561,9200,15209,0.106,551
2020-03-26T15:18:39,42.805,6.029,CST-1368DR,6561,9194,15199,0.108,551
2020-03-26T15:21:40,42.805,6.029,CST-1368DR,6561,9201,15210,0.105,551
2020-03-26T15:24:42,42.805,6.029,CST-1368DR,6561,9200,15209,0.106,551
2020-03-26T15:27:44,42.805,6.029,CST-1368DR,6561,9199,15207,0.106,551
2020-03-26T15:30:46,42.805,6.029,CST-1368DR,6561,9197,15204,0.107,551
2020-03-26T15:33:47,42.805,6.029,CST-1368DR,6561,9201,15210,0.105,551
2020-03-26T15:36:49,42.805,6.029,CST-1368DR,6561,9201,15210,0.105,551
2020-03-26T15:39:51,42.805,6.029,CST-1368DR,6561,9201,15211,0.105,551
2020-03-26T15:42:52,42.805,6.029,CST-1368DR,6561,9201,15210,0.105,551
2020-03-26T15:45:54,42.805,6.029,CST-1368DR,6561,9199,15207,0.106,551
2020-03-26T15:48:56,42.805,6.029,CST-1368DR,6561,9201,15211,0.105,551
2020-03-26T15:51:57,42.805,6.029,CST-1368DR,6561,9201,15211,0.105,551
2020-03-26T15:54:59,42.805,6.029,CST-1368DR,6561,9199,15208,0.106,551
2020-03-26T15:58:01,42.805,6.029,CST-1368DR,6561,9201,15210,0.105,551
2020-03-26T16:01:02,42.805,6.029,CST-1368DR,6561,9200,15209,0.106,551
2020-03-26T16:04:04,42.805,6.029,CST-1368DR,6561,9201,15210,0.105,551
2020-03-26T16:07:06,42.805,6.029,CST-1368DR,6561,9197,15204,0.107,551
2020-03-26T16:10:07,42.805,6.029,CST-1368DR,6561,9199,15207,0.106,551
2020-03-26T16:13:09,42.805,6.029,CST-1368DR,6561,9201,15210,0.105,551
2020-03-26T16:16:11,42.805,6.029,CST-1368DR,6561,9200,15209,0.106,551
2020-03-26T16:19:12,42.805,6.029,CST-1368DR,6561,9200,15209,0.106,551
2020-03-26T16:22:14,42.805,6.029,CST-1368DR,6561,9200,15209,0.106,551
2020-03-26T16:25:16,42.805,6.029,CST-1368DR,6561,9201,15210,0.105,551
2020-03-26T16:28:17,42.805,6.029,CST-1368DR,6561,9201,15210,0.105,551
2020-03-26T16:31:19,42.805,6.029,CST-1368DR,6561,9200,15209,0.106,551
2020-03-26T16:34:21,42.805,6.029,CST-1368DR,6561,9201,15210,0.105,551
2020-03-26T16:37:22,42.805,6.029,CST-1368DR,6561,9199,15207,0.106,551
2020-03-26T16:40:24,42.805,6.029,CST-1368DR,6561,9199,15208,0.106,551
2020-03-26T16:43:26,42.805,6.029,CST-1368DR,6561,9200,15209,0.106,551
2020-03-26T16:46:28,42.805,6.029,CST-1368DR,6561,9200,15209,0.106,551
2020-03-26T16:49:29,42.805,6.029,CST-1368DR,6561,9197,15204,0.107,551
2020-03-26T16:52:31,42.805,6.029,CST-1368DR,6561,9199,15208,0.106,551